Time,TemperatureF,DewpointF,PressureIn,WindDirection,WindDirectionDegrees,WindSpeedMPH,WindSpeedGustMPH,Humidity,HourlyPrecipIn,Conditions,Clouds,dailyrainin,SolarRadiationWatts/m^2,SoftwareType,DateUTC
2013-08-07 00:02:00,55.4,49.3,29.96,South,178,6.9,6.9,80,0.00,CLR,,0.00,0.0,WeatherDisplay:10.37,2013-08-06 23:02:00,
2013-08-07 00:07:00,55.4,49.3,29.96,SSW,195,4.6,4.6,80,0.00,CLR,,0.00,0.0,WeatherDisplay:10.37,2013-08-06 23:07:00,
2013-08-07 00:12:00,55.4,49.3,29.96,South,188,6.9,6.9,80,0.00,CLR,,0.00,0.0,WeatherDisplay:10.37,2013-08-06 23:12:00,
2013-08-07 00:17:00,55.4,49.3,29.97,South,184,3.5,3.5,80,0.00,CLR,,0.00,0.0,WeatherDisplay:10.37,2013-08-06 23:17:00,
2013-08-07 00:22:00,55.5,49.4,29.96,South,188,6.0,6.0,80,0.00,CLR,,0.00,0.0,WeatherDisplay:10.37,2013-08-06 23:22:00,
2013-08-07 00:27:00,55.5,49.4,29.96,South,182,3.5,3.5,80,0.00,CLR,,0.00,0.0,WeatherDisplay:10.37,2013-08-06 23:27:00,
2013-08-07 00:32:00,55.4,49.3,29.96,SW,215,3.5,3.5,80,0.00,CLR,,0.00,0.0,WeatherDisplay:10.37,2013-08-06 23:32:00,
2013-08-07 00:37:00,55.4,49.3,29.96,South,169,4.6,4.6,80,0.00,CLR,,0.00,0.0,WeatherDisplay:10.37,2013-08-06 23:37:00,
2013-08-07 00:42:00,55.4,49.3,29.96,South,171,5.8,5.8,80,0.00,CLR,,0.00,0.0,WeatherDisplay:10.37,2013-08-06 23:42:00,
2013-08-07 00:47:00,55.4,49.3,29.96,SSW,201,4.6,4.6,80,0.00,CLR,,0.00,0.0,WeatherDisplay:10.37,2013-08-06 23:47:00,
2013-08-07 00:52:00,55.4,49.3,29.96,SSE,168,3.0,3.0,80,0.00,CLR,,0.00,0.0,WeatherDisplay:10.37,2013-08-06 23:52:00,
2013-08-07 00:57:00,55.3,49.2,29.96,South,174,3.5,3.5,80,0.00,CLR,,0.00,0.0,WeatherDisplay:10.37,2013-08-06 23:57:00,
2013-08-07 01:02:00,55.2,49.1,29.96,South,191,4.6,4.6,80,0.00,CLR,,0.00,0.0,WeatherDisplay:10.37,2013-08-07 00:02:00,
2013-08-07 01:07:00,55.1,49.0,29.96,South,182,4.6,4.6,80,0.00,CLR,,0.00,0.0,WeatherDisplay:10.37,2013-08-07 00:07:00,
2013-08-07 01:12:00,55.0,48.9,29.96,South,178,3.5,3.5,80,0.00,CLR,,0.00,0.0,WeatherDisplay:10.37,2013-08-07 00:12:00,
2013-08-07 01:17:00,54.9,48.8,29.96,SSW,193,5.8,5.8,80,0.00,CLR,,0.00,0.0,WeatherDisplay:10.37,2013-08-07 00:17:00,
2013-08-07 01:22:00,54.9,49.2,29.96,SSE,159,4.6,4.6,81,0.00,CLR,,0.00,0.0,WeatherDisplay:10.37,2013-08-07 00:22:00,
2013-08-07 01:27:00,54.8,49.1,29.96,SSW,199,3.5,3.5,81,0.00,CLR,,0.00,0.0,WeatherDisplay:10.37,2013-08-07 00:27:00,
2013-08-07 01:32:00,54.7,49.0,29.96,SSW,193,3.5,3.5,81,0.00,CLR,,0.00,0.0,WeatherDisplay:10.37,2013-08-07 00:32:00,
2013-08-07 01:38:00,54.7,49.0,29.96,SSW,198,3.5,3.5,81,0.00,CLR,,0.00,0.0,WeatherDisplay:10.37,2013-08-07 00:38:00,
2013-08-07 01:43:00,54.6,48.9,29.96,South,187,3.5,3.5,81,0.00,CLR,,0.00,0.0,WeatherDisplay:10.37,2013-08-07 00:43:00,
2013-08-07 01:48:00,54.6,48.9,29.96,South,191,3.5,3.5,81,0.00,CLR,,0.00,0.0,WeatherDisplay:10.37,2013-08-07 00:48:00,
2013-08-07 01:53:00,54.6,48.9,29.96,SSW,193,4.6,4.6,81,0.00,CLR,,0.00,0.0,WeatherDisplay:10.37,2013-08-07 00:53:00,
2013-08-07 01:58:00,54.6,48.9,29.96,SSW,194,3.5,3.5,81,0.00,CLR,,0.00,0.0,WeatherDisplay:10.37,2013-08-07 00:58:00,
2013-08-07 02:03:00,54.6,49.2,29.96,SSW,196,5.0,5.0,82,0.00,CLR,,0.00,0.0,WeatherDisplay:10.37,2013-08-07 01:03:00,
2013-08-07 02:08:00,54.6,48.9,29.96,South,171,6.9,6.9,81,0.00,CLR,,0.00,0.0,WeatherDisplay:10.37,2013-08-07 01:08:00,
2013-08-07 02:13:00,54.6,48.9,29.96,South,170,3.5,3.5,81,0.00,CLR,,0.00,0.0,WeatherDisplay:10.37,2013-08-07 01:13:00,
2013-08-07 02:18:00,54.5,48.8,29.96,SSW,196,5.8,5.8,81,0.00,CLR,,0.00,0.0,WeatherDisplay:10.37,2013-08-07 01:18:00,
2013-08-07 02:23:00,54.4,48.7,29.96,SSW,194,3.5,3.5,81,0.00,CLR,,0.00,0.0,WeatherDisplay:10.37,2013-08-07 01:23:00,
2013-08-07 02:28:00,54.2,48.5,29.96,South,182,3.5,3.5,81,0.00,CLR,,0.00,0.0,WeatherDisplay:10.37,2013-08-07 01:28:00,
2013-08-07 02:33:00,54.1,48.4,29.96,South,182,4.0,4.0,81,0.00,CLR,,0.00,0.0,WeatherDisplay:10.37,2013-08-07 01:33:00,
2013-08-07 02:38:00,54.0,48.6,29.96,South,181,3.5,3.5,82,0.00,CLR,,0.00,0.0,WeatherDisplay:10.37,2013-08-07 01:38:00,
2013-08-07 02:43:00,53.9,48.5,29.96,South,180,0.0,0.0,82,0.00,CLR,,0.00,0.0,WeatherDisplay:10.37,2013-08-07 01:43:00,
2013-08-07 02:48:00,53.9,48.5,29.96,South,182,4.0,4.0,82,0.00,CLR,,0.00,0.0,WeatherDisplay:10.37,2013-08-07 01:48:00,
2013-08-07 02:53:00,53.8,48.4,29.95,South,183,2.3,2.3,82,0.00,CLR,,0.00,0.0,WeatherDisplay:10.37,2013-08-07 01:53:00,
2013-08-07 02:58:00,53.8,48.8,29.95,South,182,0.0,0.0,83,0.00,CLR,,0.00,0.0,WeatherDisplay:10.37,2013-08-07 01:58:00,
2013-08-07 03:03:00,53.8,48.8,29.95,South,183,0.0,0.0,83,0.00,CLR,,0.00,0.0,WeatherDisplay:10.37,2013-08-07 02:03:00,
2013-08-07 03:08:00,53.7,48.7,29.95,South,183,2.3,2.3,83,0.00,CLR,,0.00,0.0,WeatherDisplay:10.37,2013-08-07 02:08:00,
2013-08-07 03:13:00,53.6,48.2,29.95,South,182,3.5,3.5,82,0.00,CLR,,0.00,0.0,WeatherDisplay:10.37,2013-08-07 02:13:00,
2013-08-07 03:18:00,53.5,48.1,29.95,South,182,2.3,2.3,82,0.00,CLR,,0.00,0.0,WeatherDisplay:10.37,2013-08-07 02:18:00,
2013-08-07 03:23:00,53.5,48.1,29.95,South,182,0.0,0.0,82,0.00,CLR,,0.00,0.0,WeatherDisplay:10.37,2013-08-07 02:23:00,
2013-08-07 03:28:00,53.4,48.4,29.95,South,182,0.0,0.0,83,0.00,CLR,,0.00,0.0,WeatherDisplay:10.37,2013-08-07 02:28:00,
2013-08-07 03:33:00,53.4,48.4,29.95,South,182,0.0,0.0,83,0.00,CLR,,0.00,0.0,WeatherDisplay:10.37,2013-08-07 02:33:00,
2013-08-07 03:38:00,53.3,48.3,29.95,South,182,0.0,0.0,83,0.00,CLR,,0.00,0.0,WeatherDisplay:10.37,2013-08-07 02:38:00,
2013-08-07 03:43:00,53.3,48.3,29.95,South,182,0.0,0.0,83,0.00,CLR,,0.00,0.0,WeatherDisplay:10.37,2013-08-07 02:43:00,
2013-08-07 03:48:00,53.2,48.2,29.95,South,183,0.0,0.0,83,0.00,CLR,,0.00,0.0,WeatherDisplay:10.37,2013-08-07 02:48:00,
2013-08-07 03:53:00,53.2,48.2,29.95,South,182,1.2,1.2,83,0.00,CLR,,0.00,0.0,WeatherDisplay:10.37,2013-08-07 02:53:00,
2013-08-07 03:58:00,53.1,48.1,29.95,South,183,3.5,3.5,83,0.00,CLR,,0.00,0.0,WeatherDisplay:10.37,2013-08-07 02:58:00,
2013-08-07 04:03:00,53.1,48.1,29.95,South,172,3.5,3.5,83,0.00,CLR,,0.00,0.0,WeatherDisplay:10.37,2013-08-07 03:03:00,
2013-08-07 04:08:00,53.0,48.0,29.95,South,172,3.5,3.5,83,0.00,CLR,,0.00,0.0,WeatherDisplay:10.37,2013-08-07 03:08:00,
2013-08-07 04:13:00,53.1,48.1,29.95,South,172,2.0,2.0,83,0.00,CLR,,0.00,0.0,WeatherDisplay:10.37,2013-08-07 03:13:00,
2013-08-07 04:18:00,53.1,48.1,29.95,South,173,0.0,0.0,83,0.00,CLR,,0.00,0.0,WeatherDisplay:10.37,2013-08-07 03:18:00,
2013-08-07 04:23:00,53.0,48.0,29.95,South,172,0.0,0.0,83,0.00,CLR,,0.00,0.0,WeatherDisplay:10.37,2013-08-07 03:23:00,
2013-08-07 04:28:00,53.0,48.0,29.95,South,172,3.5,3.5,83,0.00,CLR,,0.00,0.0,WeatherDisplay:10.37,2013-08-07 03:28:00,
2013-08-07 04:33:00,53.0,48.0,29.95,South,173,2.3,0.0,83,0.00,CLR,,0.00,0.0,WeatherDisplay:10.37,2013-08-07 03:33:00,
2013-08-07 04:38:00,52.9,47.9,29.95,South,173,0.0,0.0,83,0.00,CLR,,0.00,0.0,WeatherDisplay:10.37,2013-08-07 03:38:00,
2013-08-07 04:43:00,52.9,47.9,29.95,South,172,2.3,0.0,83,0.00,CLR,,0.00,0.0,WeatherDisplay:10.37,2013-08-07 03:43:00,
2013-08-07 04:48:00,52.9,48.2,29.95,South,173,3.5,3.5,84,0.00,CLR,,0.00,0.0,WeatherDisplay:10.37,2013-08-07 03:48:00,
2013-08-07 04:53:00,52.9,48.2,29.95,South,173,2.3,2.3,84,0.00,CLR,,0.00,0.0,WeatherDisplay:10.37,2013-08-07 03:53:00,
2013-08-07 04:58:00,52.9,48.2,29.95,South,172,2.3,2.3,84,0.00,CLR,,0.00,0.0,WeatherDisplay:10.37,2013-08-07 03:58:00,
2013-08-07 05:01:00,52.9,48.2,29.95,South,172,2.3,0.0,84,0.00,OVC,,0.00,0.0,WeatherDisplay:10.37,2013-08-07 04:01:00,
2013-08-07 05:06:00,52.9,47.9,29.95,South,173,0.0,0.0,83,0.00,OVC,,0.00,0.0,WeatherDisplay:10.37,2013-08-07 04:06:00,
2013-08-07 05:11:00,52.9,48.2,29.95,South,172,0.0,0.0,84,0.00,OVC,,0.00,0.0,WeatherDisplay:10.37,2013-08-07 04:11:00,
2013-08-07 05:16:00,52.9,48.2,29.95,South,172,0.0,0.0,84,0.00,OVC,,0.00,0.0,WeatherDisplay:10.37,2013-08-07 04:16:00,
2013-08-07 05:21:00,52.9,48.2,29.95,South,173,0.0,0.0,84,0.00,OVC,,0.00,0.0,WeatherDisplay:10.37,2013-08-07 04:21:00,
2013-08-07 05:26:00,52.9,48.2,29.96,South,172,0.0,0.0,84,0.00,OVC,,0.00,0.0,WeatherDisplay:10.37,2013-08-07 04:26:00,
2013-08-07 05:31:00,52.8,48.1,29.96,South,172,0.0,0.0,84,0.00,OVC,,0.00,5.0,WeatherDisplay:10.37,2013-08-07 04:31:00,
2013-08-07 05:36:00,52.8,48.1,29.96,South,172,0.0,0.0,84,0.00,CLR,,0.00,5.0,WeatherDisplay:10.37,2013-08-07 04:36:00,
2013-08-07 05:41:00,52.7,48.0,29.97,South,172,0.0,0.0,84,0.00,BKN,,0.00,5.0,WeatherDisplay:10.37,2013-08-07 04:41:00,
2013-08-07 05:46:00,52.7,48.0,29.97,South,172,0.0,0.0,84,0.00,SCT,,0.00,9.0,WeatherDisplay:10.37,2013-08-07 04:46:00,
2013-08-07 05:51:00,52.6,47.9,29.97,South,171,0.0,0.0,84,0.00,SCT,,0.00,12.0,WeatherDisplay:10.37,2013-08-07 04:51:00,
2013-08-07 05:56:00,52.5,47.8,29.97,South,172,0.0,0.0,84,0.00,BKN,,0.00,12.0,WeatherDisplay:10.37,2013-08-07 04:56:00,
2013-08-07 06:01:00,52.4,47.7,29.97,SSW,210,1.2,0.0,84,0.00,BKN,,0.00,12.0,WeatherDisplay:10.37,2013-08-07 05:01:00,
2013-08-07 06:06:00,52.4,48.0,29.98,SSW,210,1.2,1.2,85,0.00,BKN,,0.00,12.0,WeatherDisplay:10.37,2013-08-07 05:06:00,
2013-08-07 06:11:00,52.4,48.0,29.98,SSW,211,3.5,3.5,85,0.00,BKN,,0.00,14.0,WeatherDisplay:10.37,2013-08-07 05:11:00,
2013-08-07 06:16:00,52.4,48.0,29.98,SSW,210,0.0,0.0,85,0.00,BKN,,0.00,12.0,WeatherDisplay:10.37,2013-08-07 05:16:00,
2013-08-07 06:21:00,52.4,48.0,29.98,SSW,210,0.0,0.0,85,0.00,BKN,,0.00,12.0,WeatherDisplay:10.37,2013-08-07 05:21:00,
2013-08-07 06:26:00,52.5,48.1,29.98,SSW,210,0.0,0.0,85,0.00,BKN,,0.00,12.0,WeatherDisplay:10.37,2013-08-07 05:26:00,
2013-08-07 06:31:00,52.5,48.1,29.98,SSW,210,0.0,0.0,85,0.00,BKN,,0.00,12.0,WeatherDisplay:10.37,2013-08-07 05:31:00,
2013-08-07 06:36:00,52.5,48.1,29.98,SSW,210,0.0,0.0,85,0.00,BKN,,0.00,14.0,WeatherDisplay:10.37,2013-08-07 05:36:00,
2013-08-07 06:41:00,52.6,48.2,29.98,SSW,210,0.0,0.0,85,0.00,BKN,,0.00,18.0,WeatherDisplay:10.37,2013-08-07 05:41:00,
2013-08-07 06:46:00,52.7,48.3,29.98,SSW,210,0.0,0.0,85,0.00,BKN,,0.00,23.0,WeatherDisplay:10.37,2013-08-07 05:46:00,
2013-08-07 06:51:00,52.7,48.3,29.98,SSW,210,0.0,0.0,85,0.00,BKN,,0.00,28.0,WeatherDisplay:10.37,2013-08-07 05:51:00,
2013-08-07 06:56:00,52.8,48.4,29.99,SSW,209,0.0,0.0,85,0.00,BKN,,0.00,26.0,WeatherDisplay:10.37,2013-08-07 05:56:00,
2013-08-07 07:01:00,52.8,48.4,29.98,SSW,210,0.0,0.0,85,0.00,BKN,,0.00,28.0,WeatherDisplay:10.37,2013-08-07 06:01:00,
2013-08-07 07:06:00,52.9,48.5,29.98,SSW,210,0.0,0.0,85,0.00,BKN,,0.00,30.0,WeatherDisplay:10.37,2013-08-07 06:06:00,
2013-08-07 07:11:00,52.9,48.5,29.97,SSW,211,0.0,0.0,85,0.00,BKN,,0.00,35.0,WeatherDisplay:10.37,2013-08-07 06:11:00,
2013-08-07 07:16:00,53.0,48.6,29.97,SSW,210,0.0,0.0,85,0.00,BKN,,0.00,37.0,WeatherDisplay:10.37,2013-08-07 06:16:00,
2013-08-07 07:21:00,53.1,48.7,29.97,SSW,210,0.0,0.0,85,0.00,BKN,,0.00,39.0,WeatherDisplay:10.37,2013-08-07 06:21:00,
2013-08-07 07:26:00,53.1,48.7,29.97,SSW,210,0.0,0.0,85,0.00,BKN,,0.00,42.0,WeatherDisplay:10.37,2013-08-07 06:26:00,
2013-08-07 07:31:00,53.2,48.8,29.97,SSW,211,0.0,0.0,85,0.00,BKN,,0.00,46.0,WeatherDisplay:10.37,2013-08-07 06:31:00,
2013-08-07 07:36:00,53.3,48.9,29.97,SSW,210,0.0,0.0,85,0.00,BKN,,0.00,49.0,WeatherDisplay:10.37,2013-08-07 06:36:00,
2013-08-07 07:41:00,53.4,49.0,29.97,SSW,210,0.0,0.0,85,0.00,BKN,,0.00,54.0,WeatherDisplay:10.37,2013-08-07 06:41:00,
2013-08-07 07:46:00,53.5,49.1,29.97,SSW,210,0.0,0.0,85,0.00,BKN,,0.00,63.0,WeatherDisplay:10.37,2013-08-07 06:46:00,
2013-08-07 07:51:00,53.6,49.2,29.98,SSW,210,0.0,0.0,85,0.00,BKN,,0.00,70.0,WeatherDisplay:10.37,2013-08-07 06:51:00,
2013-08-07 07:56:00,53.8,49.4,29.98,SSW,210,0.0,0.0,85,0.00,BKN,,0.00,77.0,WeatherDisplay:10.37,2013-08-07 06:56:00,
2013-08-07 08:01:00,53.9,49.5,29.98,SSW,205,0.0,0.0,85,0.00,BKN,,0.00,90.0,WeatherDisplay:10.37,2013-08-07 07:01:00,
2013-08-07 08:06:00,54.1,49.7,29.98,SSW,210,0.0,0.0,85,0.00,BKN,,0.00,95.0,WeatherDisplay:10.37,2013-08-07 07:06:00,
2013-08-07 08:11:00,54.2,49.8,29.99,SSW,210,0.0,0.0,85,0.00,BKN,,0.00,98.0,WeatherDisplay:10.37,2013-08-07 07:11:00,
2013-08-07 08:16:00,54.4,50.0,29.99,SSW,210,0.0,0.0,85,0.00,BKN,,0.00,109.0,WeatherDisplay:10.37,2013-08-07 07:16:00,
2013-08-07 08:21:00,54.6,49.9,29.99,SSW,210,0.0,0.0,84,0.00,BKN,,0.00,125.0,WeatherDisplay:10.37,2013-08-07 07:21:00,
2013-08-07 08:26:00,54.7,49.6,29.99,SSW,210,0.0,0.0,83,0.00,BKN,,0.00,141.0,WeatherDisplay:10.37,2013-08-07 07:26:00,
2013-08-07 08:31:00,54.9,49.8,29.99,SSW,210,0.0,0.0,83,0.00,BKN,,0.00,148.0,WeatherDisplay:10.37,2013-08-07 07:31:00,
2013-08-07 08:36:00,55.2,49.5,30.00,SSW,210,0.0,0.0,81,0.00,BKN,,0.00,163.0,WeatherDisplay:10.37,2013-08-07 07:36:00,
2013-08-07 08:41:00,55.5,49.8,30.00,SSW,210,1.0,0.0,81,0.00,SCT,,0.00,179.0,WeatherDisplay:10.37,2013-08-07 07:41:00,
2013-08-07 08:46:00,55.9,50.2,30.00,SSW,210,0.0,0.0,81,0.00,SCT,,0.00,160.0,WeatherDisplay:10.37,2013-08-07 07:46:00,
2013-08-07 08:52:00,56.2,50.4,30.00,SSW,210,0.0,0.0,81,0.00,SCT,,0.00,200.0,WeatherDisplay:10.37,2013-08-07 07:52:00,
2013-08-07 08:57:00,56.7,50.9,30.00,SSW,210,0.0,0.0,81,0.00,SCT,,0.00,202.0,WeatherDisplay:10.37,2013-08-07 07:57:00,
2013-08-07 09:02:00,57.2,51.1,30.00,SSW,210,0.0,0.0,80,0.00,SCT,,0.00,181.0,WeatherDisplay:10.37,2013-08-07 08:02:00,
2013-08-07 09:07:00,57.3,50.8,30.00,SSW,210,2.3,0.0,79,0.00,SCT,,0.00,197.0,WeatherDisplay:10.37,2013-08-07 08:07:00,
2013-08-07 09:12:00,57.6,51.1,29.99,SSW,210,0.0,0.0,79,0.00,SCT,,0.00,241.0,WeatherDisplay:10.37,2013-08-07 08:12:00,
2013-08-07 09:17:00,58.0,51.5,29.99,SSW,210,0.0,0.0,79,0.00,SCT,,0.00,287.0,WeatherDisplay:10.37,2013-08-07 08:17:00,
2013-08-07 09:22:00,58.4,51.6,29.99,SSW,210,0.0,0.0,78,0.00,SCT,,0.00,306.0,WeatherDisplay:10.37,2013-08-07 08:22:00,
2013-08-07 09:27:00,58.9,52.1,29.99,SSW,210,0.0,0.0,78,0.00,SCT,,0.00,278.0,WeatherDisplay:10.37,2013-08-07 08:27:00,
2013-08-07 09:32:00,59.3,52.4,29.99,SSW,210,0.0,0.0,78,0.00,SCT,,0.00,302.0,WeatherDisplay:10.37,2013-08-07 08:32:00,
2013-08-07 09:37:00,59.9,53.0,29.99,SSW,210,0.0,0.0,78,0.00,FEW,,0.00,540.0,WeatherDisplay:10.37,2013-08-07 08:37:00,
2013-08-07 09:42:00,60.4,53.2,29.99,SW,216,0.0,0.0,77,0.00,CLR,,0.00,348.0,WeatherDisplay:10.37,2013-08-07 08:42:00,
2013-08-07 09:47:00,60.8,52.8,30.00,SW,215,1.2,0.0,75,0.00,FEW,,0.00,211.0,WeatherDisplay:10.37,2013-08-07 08:47:00,
2013-08-07 09:52:00,61.0,53.0,30.00,SW,216,0.0,0.1,75,0.00,SCT,,0.00,218.0,WeatherDisplay:10.37,2013-08-07 08:52:00,
2013-08-07 09:57:00,61.2,53.2,29.99,SW,219,1.2,0.0,75,0.00,BKN,,0.00,241.0,WeatherDisplay:10.37,2013-08-07 08:57:00,
2013-08-07 10:02:00,61.6,53.2,30.00,SW,223,3.5,3.5,74,0.00,SCT,,0.00,466.0,WeatherDisplay:10.37,2013-08-07 09:02:00,
2013-08-07 10:07:00,62.0,53.2,29.99,SW,232,1.2,0.0,73,0.00,CLR,,0.00,290.0,WeatherDisplay:10.37,2013-08-07 09:07:00,
2013-08-07 10:12:00,62.3,53.2,30.00,SW,232,0.0,0.0,72,0.00,SCT,,0.00,265.0,WeatherDisplay:10.37,2013-08-07 09:12:00,
2013-08-07 10:17:00,62.5,53.3,29.99,SW,232,0.0,0.0,72,0.00,SCT,,0.00,686.0,WeatherDisplay:10.37,2013-08-07 09:17:00,
2013-08-07 10:22:00,62.8,54.0,29.99,SW,228,1.2,1.2,73,0.00,CLR,,0.00,446.0,WeatherDisplay:10.37,2013-08-07 09:22:00,
2013-08-07 10:27:00,63.2,54.0,29.99,SW,236,2.3,2.3,72,0.00,CLR,,0.00,439.0,WeatherDisplay:10.37,2013-08-07 09:27:00,
2013-08-07 10:32:00,63.5,53.9,29.99,NW,306,1.2,1.2,71,0.00,FEW,,0.00,367.0,WeatherDisplay:10.37,2013-08-07 09:32:00,
2013-08-07 10:37:00,63.8,53.8,29.99,NW,304,1.0,1.0,70,0.00,FEW,,0.00,404.0,WeatherDisplay:10.37,2013-08-07 09:37:00,
2013-08-07 10:42:00,64.1,52.9,29.99,SW,225,5.8,5.8,67,0.00,FEW,,0.00,294.0,WeatherDisplay:10.37,2013-08-07 09:42:00,
2013-08-07 10:47:00,64.6,53.0,30.00,SW,226,6.0,6.0,66,0.00,FEW,,0.00,318.0,WeatherDisplay:10.37,2013-08-07 09:47:00,
2013-08-07 10:52:00,64.9,52.4,30.00,WSW,242,9.2,9.2,64,0.00,SCT,,0.00,480.0,WeatherDisplay:10.37,2013-08-07 09:52:00,
2013-08-07 10:57:00,65.1,53.0,30.00,SW,236,1.0,0.0,65,0.00,SCT,,0.00,220.0,WeatherDisplay:10.37,2013-08-07 09:57:00,
2013-08-07 11:02:00,65.2,52.7,30.00,SW,234,3.5,0.0,64,0.00,SCT,,0.00,181.0,WeatherDisplay:10.37,2013-08-07 10:02:00,
2013-08-07 11:07:00,65.2,53.1,30.00,West,259,3.5,3.5,65,0.00,BKN,,0.00,162.0,WeatherDisplay:10.37,2013-08-07 10:07:00,
2013-08-07 11:12:00,65.0,52.9,30.00,West,268,1.2,0.0,65,0.00,BKN,,0.00,128.0,WeatherDisplay:10.37,2013-08-07 10:12:00,
2013-08-07 11:17:00,64.8,53.2,30.00,West,269,0.0,0.0,66,0.00,BKN,,0.00,128.0,WeatherDisplay:10.37,2013-08-07 10:17:00,
2013-08-07 11:22:00,64.6,53.0,30.00,West,272,0.0,0.0,66,0.00,BKN,,0.00,165.0,WeatherDisplay:10.37,2013-08-07 10:22:00,
2013-08-07 11:27:00,64.4,52.8,30.00,West,271,1.2,0.0,66,0.00,BKN,,0.00,195.0,WeatherDisplay:10.37,2013-08-07 10:27:00,
2013-08-07 11:32:00,64.1,52.9,30.00,WSW,251,3.5,3.5,67,0.00,BKN,,0.00,186.0,WeatherDisplay:10.37,2013-08-07 10:32:00,
2013-08-07 11:37:00,64.0,53.2,30.00,WSW,250,0.0,0.0,68,0.00,BKN,,0.00,176.0,WeatherDisplay:10.37,2013-08-07 10:37:00,
2013-08-07 11:42:00,63.9,51.9,30.00,WSW,250,3.5,3.5,65,0.00,BKN,,0.00,190.0,WeatherDisplay:10.37,2013-08-07 10:42:00,
2013-08-07 11:47:00,63.7,51.3,30.00,SW,234,1.2,1.2,64,0.00,BKN,,0.00,195.0,WeatherDisplay:10.37,2013-08-07 10:47:00,
2013-08-07 11:52:00,63.7,52.1,30.00,SW,233,3.5,3.5,66,0.00,BKN,,0.00,179.0,WeatherDisplay:10.37,2013-08-07 10:52:00,
2013-08-07 11:57:00,63.6,51.6,30.00,SW,233,2.3,2.3,65,0.00,BKN,,0.00,199.0,WeatherDisplay:10.37,2013-08-07 10:57:00,
2013-08-07 12:02:00,63.6,51.6,30.00,SW,232,0.0,0.0,65,0.00,BKN,,0.00,209.0,WeatherDisplay:10.37,2013-08-07 11:02:00,
2013-08-07 12:07:00,63.7,52.5,30.00,SW,232,0.0,0.0,67,0.00,BKN,,0.00,211.0,WeatherDisplay:10.37,2013-08-07 11:07:00,
2013-08-07 12:12:00,63.6,52.0,30.00,SW,233,2.3,0.0,66,0.00,BKN,,0.00,216.0,WeatherDisplay:10.37,2013-08-07 11:12:00,
2013-08-07 12:17:00,63.5,51.1,30.00,SW,223,5.8,5.8,64,0.00,BKN,,0.00,237.0,WeatherDisplay:10.37,2013-08-07 11:17:00,
2013-08-07 12:22:00,63.5,51.5,30.00,WSW,237,4.6,4.6,65,0.00,BKN,,0.00,258.0,WeatherDisplay:10.37,2013-08-07 11:22:00,
2013-08-07 12:27:00,63.6,52.4,30.00,SW,230,2.3,2.3,67,0.00,BKN,,0.00,302.0,WeatherDisplay:10.37,2013-08-07 11:27:00,
2013-08-07 12:32:00,63.8,52.6,30.00,SW,232,3.5,3.5,67,0.00,BKN,,0.00,404.0,WeatherDisplay:10.37,2013-08-07 11:32:00,
2013-08-07 12:37:00,64.1,53.3,30.00,SW,232,1.2,0.0,68,0.00,BKN,,0.00,373.0,WeatherDisplay:10.37,2013-08-07 11:37:00,
2013-08-07 12:42:00,64.4,52.8,30.00,SW,231,2.0,2.0,66,0.00,SCT,,0.00,454.0,WeatherDisplay:10.37,2013-08-07 11:42:00,
2013-08-07 12:47:00,64.9,52.0,30.00,WSW,240,6.9,6.9,63,0.00,SCT,,0.00,930.0,WeatherDisplay:10.37,2013-08-07 11:47:00,
2013-08-07 12:52:00,65.6,52.2,30.00,WSW,240,1.2,0.0,62,0.00,CLR,,0.00,854.0,WeatherDisplay:10.37,2013-08-07 11:52:00,
2013-08-07 12:57:00,66.2,53.7,30.00,SW,236,3.5,3.5,64,0.00,FEW,,0.00,355.0,WeatherDisplay:10.37,2013-08-07 11:57:00,
2013-08-07 13:02:00,66.6,53.2,30.00,SW,227,3.5,3.5,62,0.00,BKN,,0.00,338.0,WeatherDisplay:10.37,2013-08-07 12:02:00,
2013-08-07 13:07:00,67.0,53.5,30.00,SW,226,1.2,0.0,62,0.00,SCT,,0.00,969.0,WeatherDisplay:10.37,2013-08-07 12:07:00,
2013-08-07 13:12:00,67.3,53.8,30.00,NNW,345,3.5,3.5,62,0.00,FEW,,0.00,515.0,WeatherDisplay:10.37,2013-08-07 12:12:00,
2013-08-07 13:17:00,67.8,53.4,30.00,WSW,242,3.5,3.5,60,0.00,FEW,,0.00,424.0,WeatherDisplay:10.37,2013-08-07 12:17:00,
2013-08-07 13:22:00,68.2,53.8,30.00,WSW,240,3.0,3.0,60,0.00,SCT,,0.00,415.0,WeatherDisplay:10.37,2013-08-07 12:22:00,
2013-08-07 13:27:00,68.5,53.1,30.00,SW,236,4.6,4.6,58,0.00,SCT,,0.00,396.0,WeatherDisplay:10.37,2013-08-07 12:27:00,
2013-08-07 13:32:00,68.6,52.3,29.99,WSW,237,0.0,0.0,56,0.00,SCT,,0.00,343.0,WeatherDisplay:10.37,2013-08-07 12:32:00,
2013-08-07 13:37:00,68.6,54.2,29.99,West,264,0.0,0.0,60,0.00,BKN,,0.00,330.0,WeatherDisplay:10.37,2013-08-07 12:37:00,
2013-08-07 13:42:00,68.5,54.5,29.99,NW,311,3.5,3.5,61,0.00,BKN,,0.00,336.0,WeatherDisplay:10.37,2013-08-07 12:42:00,
2013-08-07 13:47:00,68.5,55.0,29.99,NW,313,0.0,0.0,62,0.00,BKN,,0.00,336.0,WeatherDisplay:10.37,2013-08-07 12:47:00,
2013-08-07 13:52:00,68.4,54.4,29.99,NW,315,1.2,0.0,61,0.00,BKN,,0.00,311.0,WeatherDisplay:10.37,2013-08-07 12:52:00,
2013-08-07 13:57:00,68.3,55.2,30.00,NW,315,1.2,1.2,63,0.00,BKN,,0.00,352.0,WeatherDisplay:10.37,2013-08-07 12:57:00,
2013-08-07 14:02:00,68.2,55.1,29.99,WNW,297,0.0,0.0,63,0.00,BKN,,0.00,387.0,WeatherDisplay:10.37,2013-08-07 13:02:00,
2013-08-07 14:07:00,68.2,54.7,29.99,WNW,302,3.5,3.5,62,0.00,SCT,,0.00,480.0,WeatherDisplay:10.37,2013-08-07 13:07:00,
2013-08-07 14:12:00,68.2,55.1,29.99,WNW,300,1.0,1.0,63,0.00,SCT,,0.00,330.0,WeatherDisplay:10.37,2013-08-07 13:12:00,
2013-08-07 14:17:00,68.3,54.8,29.99,West,259,3.5,0.0,62,0.00,BKN,,0.00,237.0,WeatherDisplay:10.37,2013-08-07 13:17:00,
2013-08-07 14:22:00,68.3,54.8,29.99,WSW,257,0.0,0.0,62,0.00,BKN,,0.00,218.0,WeatherDisplay:10.37,2013-08-07 13:22:00,
2013-08-07 14:27:00,68.2,55.1,29.99,WSW,258,0.0,0.0,63,0.00,BKN,,0.00,216.0,WeatherDisplay:10.37,2013-08-07 13:27:00,
2013-08-07 14:32:00,68.2,55.6,29.99,WSW,257,1.2,0.0,64,0.00,BKN,,0.00,216.0,WeatherDisplay:10.37,2013-08-07 13:32:00,
2013-08-07 14:38:00,68.1,55.0,29.99,West,259,1.2,0.0,63,0.00,BKN,,0.00,214.0,WeatherDisplay:10.37,2013-08-07 13:38:00,
2013-08-07 14:43:00,68.0,54.0,29.99,West,260,3.5,0.0,61,0.00,BKN,,0.00,174.0,WeatherDisplay:10.37,2013-08-07 13:43:00,
2013-08-07 14:48:00,67.8,54.3,29.99,West,260,1.2,0.0,62,0.00,BKN,,0.00,160.0,WeatherDisplay:10.37,2013-08-07 13:48:00,
2013-08-07 14:53:00,67.6,54.6,29.99,West,260,0.0,0.0,63,0.00,BKN,,0.00,127.0,WeatherDisplay:10.37,2013-08-07 13:53:00,
2013-08-07 14:58:00,67.4,54.4,29.99,West,260,1.2,0.0,63,0.00,BKN,,0.00,118.0,WeatherDisplay:10.37,2013-08-07 13:58:00,
2013-08-07 15:03:00,67.2,53.7,29.99,West,261,0.0,0.0,62,0.00,BKN,,0.00,151.0,WeatherDisplay:10.37,2013-08-07 14:03:00,
2013-08-07 15:08:00,67.1,54.5,29.99,West,260,0.0,0.0,64,0.00,BKN,,0.00,186.0,WeatherDisplay:10.37,2013-08-07 14:08:00,
2013-08-07 15:13:00,66.9,53.9,29.99,West,260,1.2,1.2,63,0.00,BKN,,0.00,209.0,WeatherDisplay:10.37,2013-08-07 14:13:00,
2013-08-07 15:18:00,66.8,54.7,29.99,West,261,1.2,0.0,65,0.00,BKN,,0.00,278.0,WeatherDisplay:10.37,2013-08-07 14:18:00,
2013-08-07 15:23:00,66.9,54.7,29.99,West,260,1.2,0.0,65,0.00,BKN,,0.00,232.0,WeatherDisplay:10.37,2013-08-07 14:23:00,
2013-08-07 15:28:00,66.9,53.9,29.99,West,261,0.0,0.0,63,0.00,BKN,,0.00,165.0,WeatherDisplay:10.37,2013-08-07 14:28:00,
2013-08-07 15:33:00,67.0,54.0,29.99,West,261,0.0,0.0,63,0.00,BKN,,0.00,123.0,WeatherDisplay:10.37,2013-08-07 14:33:00,
2013-08-07 15:38:00,67.0,55.3,29.99,West,261,0.0,0.0,66,0.00,BKN,,0.00,114.0,WeatherDisplay:10.37,2013-08-07 14:38:00,
2013-08-07 15:43:00,67.0,54.4,29.99,West,261,0.0,0.0,64,0.00,BKN,,0.00,105.0,WeatherDisplay:10.37,2013-08-07 14:43:00,
2013-08-07 15:48:00,66.9,54.3,29.99,WSW,248,1.2,0.0,64,0.00,BKN,,0.00,90.0,WeatherDisplay:10.37,2013-08-07 14:48:00,
2013-08-07 15:53:00,66.7,53.7,29.99,WSW,248,3.5,0.0,63,0.00,BKN,,0.00,77.0,WeatherDisplay:10.37,2013-08-07 14:53:00,
2013-08-07 15:58:00,66.5,53.9,29.99,WSW,244,5.0,5.0,64,0.00,BKN,,0.00,69.0,WeatherDisplay:10.37,2013-08-07 14:58:00,
2013-08-07 16:03:00,66.3,53.3,29.99,SW,236,3.5,3.5,63,0.00,OVC,,0.00,74.0,WeatherDisplay:10.37,2013-08-07 15:03:00,
2013-08-07 16:08:00,66.2,52.8,29.99,SW,230,2.3,2.3,62,0.00,OVC,,0.00,69.0,WeatherDisplay:10.37,2013-08-07 15:08:00,
2013-08-07 16:13:00,66.0,53.0,29.99,South,184,3.5,3.5,63,0.00,OVC,,0.00,70.0,WeatherDisplay:10.37,2013-08-07 15:13:00,
2013-08-07 16:18:00,65.9,52.9,29.99,South,184,2.0,2.0,63,0.00,OVC,,0.00,67.0,WeatherDisplay:10.37,2013-08-07 15:18:00,
2013-08-07 16:23:00,65.7,53.2,29.99,South,183,1.0,1.0,64,0.00,OVC,,0.00,65.0,WeatherDisplay:10.37,2013-08-07 15:23:00,
2013-08-07 16:28:00,65.6,53.1,29.99,South,184,3.5,3.5,64,0.00,OVC,,0.00,62.0,WeatherDisplay:10.37,2013-08-07 15:28:00,
2013-08-07 16:33:00,65.4,52.5,29.99,South,185,3.5,3.5,63,0.00,OVC,,0.00,47.0,WeatherDisplay:10.37,2013-08-07 15:33:00,
2013-08-07 16:38:00,65.3,52.8,29.99,South,185,3.5,3.5,64,0.00,OVC,,0.00,39.0,WeatherDisplay:10.37,2013-08-07 15:38:00,
2013-08-07 16:43:00,65.1,52.6,30.00,South,186,1.2,0.0,64,0.00,OVC,,0.00,44.0,WeatherDisplay:10.37,2013-08-07 15:43:00,
2013-08-07 16:48:00,65.0,52.5,30.00,South,185,1.2,1.2,64,0.00,OVC,,0.00,49.0,WeatherDisplay:10.37,2013-08-07 15:48:00,
2013-08-07 16:53:00,65.0,53.4,30.00,South,185,2.3,2.3,66,0.00,OVC,,0.00,60.0,WeatherDisplay:10.37,2013-08-07 15:53:00,
2013-08-07 16:58:00,64.9,53.7,30.00,South,184,0.0,0.0,67,0.00,OVC,,0.00,56.0,WeatherDisplay:10.37,2013-08-07 15:58:00,
2013-08-07 17:03:00,64.9,53.7,30.00,South,185,0.0,0.0,67,0.00,OVC,,0.00,54.0,WeatherDisplay:10.37,2013-08-07 16:03:00,
2013-08-07 17:08:00,64.8,53.6,30.00,South,185,0.0,0.0,67,0.00,OVC,,0.00,58.0,WeatherDisplay:10.37,2013-08-07 16:08:00,
2013-08-07 17:13:00,64.6,53.8,30.00,South,186,0.0,0.0,68,0.00,OVC,,0.00,58.0,WeatherDisplay:10.37,2013-08-07 16:13:00,
2013-08-07 17:18:00,64.5,53.7,30.00,South,185,0.0,0.0,68,0.00,OVC,,0.00,53.0,WeatherDisplay:10.37,2013-08-07 16:18:00,
2013-08-07 17:23:00,64.4,54.0,30.00,South,184,0.0,0.0,69,0.00,BKN,,0.00,63.0,WeatherDisplay:10.37,2013-08-07 16:23:00,
2013-08-07 17:28:00,64.4,54.0,30.00,South,185,0.0,0.0,69,0.00,BKN,,0.00,77.0,WeatherDisplay:10.37,2013-08-07 16:28:00,
2013-08-07 17:33:00,64.3,54.3,30.00,South,186,0.0,0.0,70,0.00,BKN,,0.00,86.0,WeatherDisplay:10.37,2013-08-07 16:33:00,
2013-08-07 17:38:00,64.3,53.9,30.00,South,185,0.0,0.0,69,0.00,BKN,,0.00,88.0,WeatherDisplay:10.37,2013-08-07 16:38:00,
2013-08-07 17:43:00,64.2,53.4,30.00,South,186,0.0,0.0,68,0.00,BKN,,0.00,84.0,WeatherDisplay:10.37,2013-08-07 16:43:00,
2013-08-07 17:48:00,64.2,52.6,30.00,South,185,2.3,2.3,66,0.00,BKN,,0.00,79.0,WeatherDisplay:10.37,2013-08-07 16:48:00,
2013-08-07 17:53:00,64.2,52.6,30.00,South,184,0.0,0.0,66,0.00,BKN,,0.00,72.0,WeatherDisplay:10.37,2013-08-07 16:53:00,
2013-08-07 17:58:00,64.2,52.6,30.00,South,185,2.3,2.3,66,0.00,BKN,,0.00,63.0,WeatherDisplay:10.37,2013-08-07 16:58:00,
2013-08-07 18:03:00,64.2,52.6,30.00,South,184,3.5,3.5,66,0.00,BKN,,0.00,60.0,WeatherDisplay:10.37,2013-08-07 17:03:00,
2013-08-07 18:08:00,64.2,53.0,30.00,SW,230,4.6,4.6,67,0.00,BKN,,0.00,60.0,WeatherDisplay:10.37,2013-08-07 17:08:00,
2013-08-07 18:13:00,64.2,53.0,30.00,SSW,205,3.5,3.5,67,0.00,BKN,,0.00,60.0,WeatherDisplay:10.37,2013-08-07 17:13:00,
2013-08-07 18:18:00,64.0,52.4,30.00,SSW,209,3.5,3.5,66,0.00,BKN,,0.00,62.0,WeatherDisplay:10.37,2013-08-07 17:18:00,
2013-08-07 18:23:00,63.9,52.3,30.00,SSW,205,4.6,4.6,66,0.00,BKN,,0.00,65.0,WeatherDisplay:10.37,2013-08-07 17:23:00,
2013-08-07 18:28:00,63.7,52.1,30.00,SSW,199,4.6,4.6,66,0.00,BKN,,0.00,62.0,WeatherDisplay:10.37,2013-08-07 17:28:00,
2013-08-07 18:33:00,63.6,52.4,30.00,South,188,3.5,3.5,67,0.00,BKN,,0.00,53.0,WeatherDisplay:10.37,2013-08-07 17:33:00,
2013-08-07 18:38:00,63.4,52.2,30.01,SSE,159,11.5,11.5,67,0.00,BKN,,0.00,46.0,WeatherDisplay:10.37,2013-08-07 17:38:00,
2013-08-07 18:43:00,63.2,52.5,30.00,SSW,203,11.5,11.5,68,0.00,BKN,,0.00,42.0,WeatherDisplay:10.37,2013-08-07 17:43:00,
2013-08-07 18:48:00,63.0,52.7,30.00,South,180,9.2,9.2,69,0.00,BKN,,0.00,40.0,WeatherDisplay:10.37,2013-08-07 17:48:00,
2013-08-07 18:53:00,62.8,52.5,30.00,SW,226,11.5,11.5,69,0.00,BKN,,0.00,40.0,WeatherDisplay:10.37,2013-08-07 17:53:00,
2013-08-07 18:58:00,62.6,52.3,30.00,South,171,6.9,6.9,69,0.00,BKN,,0.00,39.0,WeatherDisplay:10.37,2013-08-07 17:58:00,
2013-08-07 19:04:00,62.4,52.1,30.00,South,173,4.6,4.6,69,0.00,BKN,,0.00,42.0,WeatherDisplay:10.37,2013-08-07 18:04:00,
2013-08-07 19:09:00,62.2,51.9,30.00,South,179,6.9,6.9,69,0.00,BKN,,0.00,47.0,WeatherDisplay:10.37,2013-08-07 18:09:00,
2013-08-07 19:14:00,62.1,52.2,30.00,SSE,158,6.0,6.0,70,0.00,BKN,,0.00,54.0,WeatherDisplay:10.37,2013-08-07 18:14:00,
2013-08-07 19:19:00,61.9,52.4,30.00,South,189,6.9,6.9,71,0.00,BKN,,0.00,56.0,WeatherDisplay:10.37,2013-08-07 18:19:00,
2013-08-07 19:24:00,61.7,52.2,30.01,South,182,3.5,3.5,71,0.00,BKN,,0.00,53.0,WeatherDisplay:10.37,2013-08-07 18:24:00,
2013-08-07 19:29:00,61.7,52.6,30.01,SSE,161,7.0,7.0,72,0.00,BKN,,0.00,44.0,WeatherDisplay:10.37,2013-08-07 18:29:00,
2013-08-07 19:34:00,61.5,52.8,30.01,SSE,153,4.6,4.6,73,0.00,BKN,,0.00,44.0,WeatherDisplay:10.37,2013-08-07 18:34:00,
2013-08-07 19:39:00,61.5,53.1,30.01,South,179,3.5,3.5,74,0.00,BKN,,0.00,40.0,WeatherDisplay:10.37,2013-08-07 18:39:00,
2013-08-07 19:44:00,61.4,53.0,30.01,South,177,3.5,3.5,74,0.00,BKN,,0.00,37.0,WeatherDisplay:10.37,2013-08-07 18:44:00,
2013-08-07 19:49:00,61.3,52.9,30.01,SE,137,4.6,4.6,74,0.00,BKN,,0.00,33.0,WeatherDisplay:10.37,2013-08-07 18:49:00,
2013-08-07 19:54:00,61.1,53.1,30.01,SE,144,3.5,3.5,75,0.00,BKN,,0.00,32.0,WeatherDisplay:10.37,2013-08-07 18:54:00,
2013-08-07 19:59:00,61.0,53.0,30.01,SE,146,3.5,3.5,75,0.00,BKN,,0.00,32.0,WeatherDisplay:10.37,2013-08-07 18:59:00,
2013-08-07 20:04:00,60.9,52.9,30.01,SE,135,3.5,3.5,75,0.00,BKN,,0.00,30.0,WeatherDisplay:10.37,2013-08-07 19:04:00,
2013-08-07 20:09:00,60.8,52.8,30.01,SSE,152,4.0,4.0,75,0.00,BKN,,0.00,23.0,WeatherDisplay:10.37,2013-08-07 19:09:00,
2013-08-07 20:14:00,60.6,52.6,30.02,SE,145,3.5,3.5,75,0.00,BKN,,0.00,21.0,WeatherDisplay:10.37,2013-08-07 19:14:00,
2013-08-07 20:19:00,60.5,52.9,30.02,ESE,123,3.5,3.5,76,0.00,BKN,,0.00,18.0,WeatherDisplay:10.37,2013-08-07 19:19:00,
2013-08-07 20:24:00,60.4,53.2,30.02,ESE,123,0.0,0.0,77,0.00,BKN,,0.00,18.0,WeatherDisplay:10.37,2013-08-07 19:24:00,
2013-08-07 20:29:00,60.3,53.4,30.02,ESE,123,0.0,0.0,78,0.00,BKN,,0.00,16.0,WeatherDisplay:10.37,2013-08-07 19:29:00,
2013-08-07 20:34:00,60.3,53.8,30.02,ESE,123,0.0,0.0,79,0.00,BKN,,0.00,12.0,WeatherDisplay:10.37,2013-08-07 19:34:00,
2013-08-07 20:39:00,60.3,53.8,30.02,ESE,123,3.5,3.5,79,0.00,BKN,,0.00,12.0,WeatherDisplay:10.37,2013-08-07 19:39:00,
2013-08-07 20:44:00,60.2,53.3,30.02,SE,124,0.0,0.0,78,0.00,BKN,,0.00,12.0,WeatherDisplay:10.37,2013-08-07 19:44:00,
2013-08-07 20:49:00,60.2,53.7,30.03,ESE,123,0.0,0.0,79,0.00,BKN,,0.00,11.0,WeatherDisplay:10.37,2013-08-07 19:49:00,
2013-08-07 20:54:00,60.2,53.7,30.02,ESE,123,0.0,0.0,79,0.00,BKN,,0.00,11.0,WeatherDisplay:10.37,2013-08-07 19:54:00,
2013-08-07 20:59:00,60.1,53.6,30.03,ESE,123,3.5,3.5,79,0.00,BKN,,0.00,9.0,WeatherDisplay:10.37,2013-08-07 19:59:00,
2013-08-07 21:04:00,60.0,53.5,30.02,ESE,123,3.5,3.5,79,0.00,BKN,,0.00,7.0,WeatherDisplay:10.37,2013-08-07 20:04:00,
2013-08-07 21:09:00,59.9,53.4,30.03,ESE,123,3.5,3.5,79,0.00,SCT,,0.00,5.0,WeatherDisplay:10.37,2013-08-07 20:09:00,
2013-08-07 21:14:00,59.8,53.3,30.03,ESE,123,3.5,3.5,79,0.00,OVC,,0.00,0.0,WeatherDisplay:10.37,2013-08-07 20:14:00,
2013-08-07 21:19:00,59.7,53.5,30.03,ESE,123,2.3,2.3,80,0.00,OVC,,0.00,0.0,WeatherDisplay:10.37,2013-08-07 20:19:00,
2013-08-07 21:24:00,59.6,53.1,30.03,SE,124,3.5,3.5,79,0.00,OVC,,0.00,0.0,WeatherDisplay:10.37,2013-08-07 20:24:00,
2013-08-07 21:29:00,59.6,53.4,30.03,SE,124,2.3,2.3,80,0.00,OVC,,0.00,0.0,WeatherDisplay:10.37,2013-08-07 20:29:00,
2013-08-07 21:34:00,59.5,53.0,30.03,SE,125,0.0,0.0,79,0.00,OVC,,0.00,0.0,WeatherDisplay:10.37,2013-08-07 20:34:00,
2013-08-07 21:39:00,59.4,52.9,30.03,SE,125,0.0,0.0,79,0.00,OVC,,0.00,0.0,WeatherDisplay:10.37,2013-08-07 20:39:00,
2013-08-07 21:44:00,59.3,53.1,30.03,SE,125,0.0,0.0,80,0.00,CLR,,0.00,0.0,WeatherDisplay:10.37,2013-08-07 20:44:00,
2013-08-07 21:49:00,59.2,53.0,30.03,SE,125,0.0,0.0,80,0.00,CLR,,0.00,0.0,WeatherDisplay:10.37,2013-08-07 20:49:00,
2013-08-07 21:54:00,59.1,52.9,30.03,SE,126,0.0,0.0,80,0.00,CLR,,0.00,0.0,WeatherDisplay:10.37,2013-08-07 20:54:00,
2013-08-07 21:59:00,59.0,52.8,30.03,SE,125,0.0,0.0,80,0.00,CLR,,0.00,0.0,WeatherDisplay:10.37,2013-08-07 20:59:00,
2013-08-07 22:04:00,58.8,53.0,30.03,SE,125,0.0,0.0,81,0.00,CLR,,0.00,0.0,WeatherDisplay:10.37,2013-08-07 21:04:00,
2013-08-07 22:09:00,58.7,52.9,30.04,SE,125,0.0,0.0,81,0.00,CLR,,0.00,0.0,WeatherDisplay:10.37,2013-08-07 21:09:00,
2013-08-07 22:14:00,58.6,52.8,30.04,SE,125,0.0,0.0,81,0.00,CLR,,0.00,0.0,WeatherDisplay:10.37,2013-08-07 21:14:00,
2013-08-07 22:19:00,58.4,52.9,30.04,SE,125,0.0,0.0,82,0.00,CLR,,0.00,0.0,WeatherDisplay:10.37,2013-08-07 21:19:00,
2013-08-07 22:24:00,58.3,52.5,30.04,SE,126,0.0,0.0,81,0.00,CLR,,0.00,0.0,WeatherDisplay:10.37,2013-08-07 21:24:00,
2013-08-07 22:29:00,58.1,52.6,30.04,SE,126,0.0,0.0,82,0.00,CLR,,0.00,0.0,WeatherDisplay:10.37,2013-08-07 21:29:00,
2013-08-07 22:34:00,57.9,52.4,30.04,SE,126,0.0,0.0,82,0.00,CLR,,0.00,0.0,WeatherDisplay:10.37,2013-08-07 21:34:00,
2013-08-07 22:39:00,57.8,52.3,30.04,SE,125,0.0,0.0,82,0.00,CLR,,0.00,0.0,WeatherDisplay:10.37,2013-08-07 21:39:00,
2013-08-07 22:44:00,57.7,52.2,30.04,SE,125,0.0,0.0,82,0.00,CLR,,0.00,0.0,WeatherDisplay:10.37,2013-08-07 21:44:00,
2013-08-07 22:49:00,57.4,51.9,30.04,SE,125,0.0,0.0,82,0.00,CLR,,0.00,0.0,WeatherDisplay:10.37,2013-08-07 21:49:00,
2013-08-07 22:54:00,57.3,51.9,30.04,SE,125,0.0,0.0,82,0.00,CLR,,0.00,0.0,WeatherDisplay:10.37,2013-08-07 21:54:00,
2013-08-07 22:59:00,57.3,51.9,30.04,SE,125,0.0,0.0,82,0.00,CLR,,0.00,0.0,WeatherDisplay:10.37,2013-08-07 21:59:00,
2013-08-07 23:04:00,57.3,52.2,30.04,SE,126,0.0,0.0,83,0.00,CLR,,0.00,0.0,WeatherDisplay:10.37,2013-08-07 22:04:00,
2013-08-07 23:09:00,57.3,52.2,30.04,SE,126,0.0,0.0,83,0.00,CLR,,0.00,0.0,WeatherDisplay:10.37,2013-08-07 22:09:00,
2013-08-07 23:14:00,57.0,51.9,30.04,SE,125,0.0,0.0,83,0.00,CLR,,0.00,0.0,WeatherDisplay:10.37,2013-08-07 22:14:00,
2013-08-07 23:19:00,56.9,52.1,30.04,SE,126,0.0,0.0,84,0.00,CLR,,0.00,0.0,WeatherDisplay:10.37,2013-08-07 22:19:00,
2013-08-07 23:24:00,56.9,52.1,30.05,SE,125,0.0,0.0,84,0.00,CLR,,0.00,0.0,WeatherDisplay:10.37,2013-08-07 22:24:00,
2013-08-07 23:29:00,56.7,52.2,30.05,SE,125,0.0,0.0,85,0.00,CLR,,0.00,0.0,WeatherDisplay:10.37,2013-08-07 22:29:00,
2013-08-07 23:34:00,56.6,51.8,30.05,SE,126,0.0,0.0,84,0.00,CLR,,0.00,0.0,WeatherDisplay:10.37,2013-08-07 22:34:00,
2013-08-07 23:39:00,56.5,51.7,30.05,SE,126,0.0,0.0,84,0.00,CLR,,0.00,0.0,WeatherDisplay:10.37,2013-08-07 22:39:00,
2013-08-07 23:44:00,56.3,51.5,30.04,SE,125,0.0,0.0,84,0.00,CLR,,0.00,0.0,WeatherDisplay:10.37,2013-08-07 22:44:00,
2013-08-07 23:49:00,56.2,51.4,30.04,SE,126,0.0,0.0,84,0.00,CLR,,0.00,0.0,WeatherDisplay:10.37,2013-08-07 22:49:00,
2013-08-07 23:55:00,56.0,51.2,30.05,SE,125,0.0,0.0,84,0.00,CLR,,0.00,0.0,WeatherDisplay:10.37,2013-08-07 22:55:00,